This is the latest recevied weather packets stored in our database for station/object KC3WWU. If no packets are shown the sender has not sent any weather packets the latest 10 day(s).
| Time | Temp. | Humidity | Pressure | Rain* | Wind** | Luminosity | Snow |
|---|---|---|---|---|---|---|---|
| 1778080573 | 13.33° C | 99% | 1004.9 hPa | 0 mm | - | 112 W/m² | - |
| 1778080269 | 13.33° C | 99% | 1004.8 hPa | 0 mm | - | 108 W/m² | - |
| 1778079966 | 13.33° C | 99% | 1004.9 hPa | 0 mm | - | 90 W/m² | - |
| 1778079663 | 13.33° C | 99% | 1004.7 hPa | 0 mm | - | 56 W/m² | - |
| 1778079360 | 13.33° C | 99% | 1004.7 hPa | 0 mm | - | 63 W/m² | - |
| 1778079057 | 13.33° C | 99% | 1004.5 hPa | 0 mm | - | 43 W/m² | - |
| 1778078754 | 13.33° C | 99% | 1004.9 hPa | 0 mm | - | 59 W/m² | - |
| 1778078451 | 13.33° C | 99% | 1004.7 hPa | 0 mm | - | 45 W/m² | - |
| 1778078149 | 13.33° C | 99% | 1004.9 hPa | 0 mm | - | 55 W/m² | - |
| 1778077847 | 13.33° C | 99% | 1004.7 hPa | 0 mm | - | 39 W/m² | - |
| 1778077544 | 13.33° C | 99% | 1004.7 hPa | 0 mm | - | 61 W/m² | - |
| 1778077243 | 13.33° C | 99% | 1004.8 hPa | 0 mm | - | 44 W/m² | - |
| 1778076940 | 12.78° C | 99% | 1004.3 hPa | 0 mm | - | 41 W/m² | - |
| 1778076638 | 12.78° C | 99% | 1004.5 hPa | 0 mm | - | 20 W/m² | - |
| 1778076335 | 12.78° C | 99% | 1004.5 hPa | 0 mm | - | 43 W/m² | - |
| 1778076033 | 12.78° C | 99% | 1004.4 hPa | 0 mm | - | 45 W/m² | - |
| 1778075729 | 12.78° C | 99% | 1004.3 hPa | 0 mm | - | 39 W/m² | - |
| 1778075425 | 12.78° C | 99% | 1004.7 hPa | 0 mm | - | 35 W/m² | - |
| 1778075122 | 12.78° C | 99% | 1004.5 hPa | 0 mm | - | 30 W/m² | - |
| 1778074818 | 12.78° C | 99% | 1004.3 hPa | 0 mm | - | 35 W/m² | - |
| 1778074515 | 12.78° C | 99% | 1004.2 hPa | 0 mm | - | 68 W/m² | - |
| 1778074212 | 12.78° C | 99% | 1004.4 hPa | 0 mm | - | 43 W/m² | - |
| 1778073909 | 12.78° C | 99% | 1004.3 hPa | 0 mm | - | 48 W/m² | - |
| 1778073607 | 12.22° C | 99% | 1004.2 hPa | 0 mm | - | 36 W/m² | - |
| 1778073303 | 12.22° C | 99% | 1004.3 hPa | 1.78 mm | - | 36 W/m² | - |
* Rain latest hour (hover to see other rain measurements)
** Current wind speed in m/s (hover to see current wind gust speed)